User: anonymous   Login
Location: Unspecified
(0.0000°N, 0.0000°E)
Time: 07:51:48
(UTC+00:00)
Language:

AISAT - Orbit

View from above orbital plane
View from above orbital plane
View from above satellite
View from above satellite

Ground track
Ground track

The orbit data is extracted from the following two-line orbital elements,

1 40054U 14034B   19082.89831098 +.00000349 +00000-0 +56200-4 0  9994
2 40054 098.2199 203.4424 0014026 135.8133 224.4200 14.77706996254910
Epoch (UTC): 23 March 2019 21:33:34
Eccentricity: 0.0014026
inclination: 98.2199°
perigee height: 627 km
apogee height: 646 km
right ascension of ascending node: 203.4424°
argument of perigee: 135.8133°
revolutions per day: 14.77706996
mean anomaly at epoch: 224.4200°
orbit number at epoch: 25491

The dashed part of the orbit path shows where the satellite is in the earth's shadow,  

DLR